Flag for Fiji Weather past 2 weeks in Lautoka, Fiji

Now
88 °F

Passing clouds.


Feels Like: 98 °F
Forecast: 79 / 87 °F
Wind: 14 mph from Northwest

Location: Nandi

Current Time: Dec 18, 2014 at 1:49:07 PM

Latest Report: Dec 18, 2014 at 1:00 PM


Visibility: N/A

Pressure: 29.83 "Hg

Humidity: 66%

Dew point: 75 °F

Location of LautokaLocation

Historic Weather in Lautoka — Graph

°F

Lautoka temperature yesterday

Maximum temperature yesterday: 88 °F (at 11:00 AM)
Minimum temperature yesterday: 73 °F (at 6:00 AM)
Average temperature yesterday: 82 °F

Past Weeks' High & Low Weather Summary

 TemperatureHumidityPressure
High91 °F (Dec 13, 2:00 PM)100% (Dec 5, 7:00 AM)29.92 "Hg (Dec 5, 7:00 AM)
Low72 °F (Dec 5, 7:00 AM)46% (Dec 13, 3:00 PM)29.74 "Hg (Dec 15, 5:00 PM)
Average80 °F77%29.85 "Hg
* Reported Dec 3 1:00 PM — Dec 18 1:00 PM, Lautoka, Weather by CustomWeather, © 2014

Note: Actual official high and low records may vary slightly from our data, if they occured in-between our weather recording intervals... More about our weather records

Advertising

Lautoka weather history for previous 24 hours

 ConditionsComfort  
Time TempWeatherWind HumidityBarometerVisibility
1:00 PM
Dec 18
88 °FPassing clouds.14 mph66%29.83 "HgN/A
12:00 PM88 °FPassing clouds.10 mph66%29.86 "HgN/A
11:00 AM86 °FScattered clouds.8 mph70%29.89 "HgN/A
10:00 AM82 °FScattered clouds.3 mph79%29.86 "HgN/A
9:00 AM82 °FScattered clouds.No wind79%29.86 "HgN/A
8:00 AM77 °FPassing clouds.No wind89%29.86 "HgN/A
7:00 AM75 °FScattered clouds.No wind94%29.86 "HgN/A
6:00 AM77 °FPassing clouds.No wind89%29.83 "HgN/A
5:00 AM77 °FPassing clouds.3 mph89%29.83 "HgN/A
4:00 AM77 °FPassing clouds.No wind89%29.83 "HgN/A
3:00 AM77 °FPassing clouds.3 mph89%29.83 "HgN/A
2:00 AM79 °FPassing clouds.3 mph84%29.86 "HgN/A
1:00 AM79 °FPassing clouds.3 mph84%29.89 "HgN/A
12:00 AM79 °FPassing clouds.3 mph89%29.89 "HgN/A
11:00 PM
Dec 17
81 °FPassing clouds.3 mph79%29.89 "HgN/A
10:00 PM81 °FPassing clouds.5 mph79%29.89 "HgN/A
9:00 PM82 °FPassing clouds.6 mph74%29.86 "HgN/A
8:00 PM82 °FPassing clouds.7 mph74%29.83 "HgN/A
7:00 PM84 °FPassing clouds.9 mph66%29.80 "HgN/A
6:00 PM86 °FPassing clouds.12 mph62%29.80 "HgN/A
5:00 PM86 °FPassing clouds.13 mph59%29.80 "HgN/A
4:00 PM86 °FPassing clouds.13 mph62%29.80 "HgN/A
3:00 PM86 °FPassing clouds.13 mph62%29.80 "HgN/A
2:00 PM86 °FPassing clouds.14 mph62%29.80 "HgN/A
1:00 PM86 °FPassing clouds.14 mph62%29.83 "HgN/A
Weather by CustomWeather, © 2014

See weather overviewHow to use our weather pages